CW3468 Weather Reports


Display with metric or nautical units.
time (UTC)temp
F
wind
direction
speed
MPH
gust
MPH
rain 1hr
in
rain 24hr
in
rain mn
in
humidity
%
barometer
mb
20190320161550 68 155 1.0 6.0 0.00 0.00 0.00 61 1025.8
20190320160541 66 171 2.0 6.0 0.00 0.00 0.00 62 1025.8
20190320155558 65 174 2.0 6.0 0.00 0.00 0.00 65 1025.7
20190320154538 63 193 1.0 7.0 0.00 0.00 0.00 70 1025.7
20190320153555 61 153 2.0 4.0 0.00 0.00 0.00 72 1025.6
20190320152538 60 173 1.0 6.0 0.00 0.00 0.00 73 1025.7
20190320151545 59 192 1.0 4.0 0.00 0.00 0.00 75 1025.7
20190320150554 59 192 2.0 4.0 0.00 0.00 0.00 75 1025.6
20190320145548 58 176 1.0 5.0 0.00 0.00 0.00 76 1025.6
20190320144547 58 198 0.0 2.0 0.00 0.00 0.00 78 1025.6
20190320143543 57 208 0.0 2.0 0.00 0.00 0.00 79 1025.6
20190320142543 57 208 1.0 3.0 0.00 0.00 0.00 79 1025.6
20190320141546 57 234 0.0 2.0 0.00 0.00 0.00 80 1025.4
20190320140558 56 234 0.0 3.0 0.00 0.00 0.00 81 1025.3
20190320135541 56 168 0.0 2.0 0.00 0.00 0.00 82 1025.2
20190320134548 55 168 0.0 1.0 0.00 0.00 0.00 82 1025.0
20190320133537 55 168 0.0 0.0 0.00 0.00 0.00 83 1024.9
20190320132548 55 168 0.0 0.0 0.00 0.00 0.00 83 1024.9
20190320131552 54 168 0.0 1.0 0.00 0.00 0.00 84 1024.7
20190320130545 54 168 0.0 0.0 0.00 0.00 0.00 85 1024.5
20190320125553 54 168 0.0 0.0 0.00 0.00 0.00 85 1024.5
20190320124555 53 168 0.0 0.0 0.00 0.00 0.00 85 1024.4
20190320123551 53 168 0.0 0.0 0.00 0.00 0.00 86 1024.2
20190320122542 53 167 0.0 0.0 0.00 0.00 0.00 86 1024.1
20190320121548 53 168 0.0 0.0 0.00 0.00 0.00 87 1024.1
20190320120550 52 168 0.0 0.0 0.00 0.00 0.00 87 1023.9
20190320115557 52 168 0.0 0.0 0.00 0.00 0.00 86 1023.8
20190320114539 52 167 0.0 0.0 0.00 0.00 0.00 85 1023.8
20190320113550 53 168 0.0 0.0 0.00 0.00 0.00 85 1023.7
20190320112557 53 167 0.0 0.0 0.00 0.00 0.00 84 1023.6
20190320111545 53 168 0.0 0.0 0.00 0.00 0.00 85 1023.5
20190320110549 53 168 0.0 0.0 0.00 0.00 0.00 86 1023.3
20190320105558 53 168 0.0 0.0 0.00 0.00 0.00 86 1023.4
20190320104557 52 168 0.0 0.0 0.00 0.00 0.00 87 1023.3
20190320103556 52 167 0.0 0.0 0.00 0.00 0.00 86 1023.2
20190320102549 52 168 0.0 0.0 0.00 0.00 0.00 87 1023.1
20190320101532 52 168 0.0 0.0 0.00 0.00 0.00 86 1023.1
20190320100542 52 168 0.0 0.0 0.00 0.00 0.00 85 1023.0
20190320095537 52 168 0.0 0.0 0.00 0.00 0.00 84 1023.0
20190320094542 52 167 0.0 0.0 0.00 0.00 0.00 84 1022.9
20190320093552 52 167 0.0 1.0 0.00 0.00 0.00 84 1022.8
20190320092558 53 168 0.0 1.0 0.00 0.00 0.00 83 1022.8
20190320091558 53 168 0.0 3.0 0.00 0.00 0.00 83 1022.8
20190320090539 53 173 0.0 2.0 0.00 0.00 0.00 82 1022.9
20190320085544 54 174 0.0 2.0 0.00 0.00 0.00 81 1023.0
20190320084538 54 177 1.0 4.0 0.00 0.00 0.00 81 1023.0
20190320083552 54 181 0.0 3.0 0.00 0.00 0.00 81 1023.2
20190320082546 54 186 0.0 2.0 0.00 0.00 0.00 81 1023.3
20190320081536 55 185 0.0 2.0 0.00 0.00 0.00 81 1023.4
20190320080557 55 190 0.0 3.0 0.00 0.00 0.00 81 1023.4
20190320075540 54 193 0.0 2.0 0.00 0.00 0.00 82 1023.6
20190320074546 54 193 0.0 2.0 0.00 0.00 0.00 81 1023.7
20190320073544 54 193 0.0 1.0 0.00 0.00 0.00 81 1023.8
20190320072545 54 193 0.0 1.0 0.00 0.00 0.00 82 1023.8
20190320071533 53 193 0.0 1.0 0.00 0.00 0.00 82 1023.8
20190320070558 53 193 0.0 1.0 0.00 0.00 0.00 81 1023.9
20190320065541 54 193 1.0 3.0 0.00 0.00 0.00 81 1024.0
20190320064551 53 193 1.0 2.0 0.00 0.00 0.00 81 1024.0
20190320063551 54 190 1.0 2.0 0.00 0.00 0.00 80 1024.0
20190320062559 54 188 0.0 4.0 0.00 0.00 0.00 79 1024.1
20190320061539 54 188 0.0 2.0 0.00 0.00 0.00 79 1024.2
20190320060546 54 190 0.0 3.0 0.00 0.00 0.00 78 1024.2
20190320055553 54 189 0.0 3.0 0.00 0.00 0.00 78 1024.2
20190320054549 55 190 2.0 4.0 0.00 0.00 0.00 77 1024.2
20190320053551 55 171 2.0 4.0 0.00 0.00 0.00 76 1024.3
20190320052547 55 173 0.0 4.0 0.00 0.00 0.00 75 1024.4
20190320051553 55 178 1.0 3.0 0.00 0.00 0.00 75 1024.4
20190320050537 56 181 0.0 4.0 0.00 0.00 0.00 74 1024.3
20190320045544 56 167 1.0 3.0 0.00 0.00 0.00 73 1024.4
20190320044545 56 168 1.0 3.0 0.00 0.00 0.00 73 1024.4
20190320043553 56 170 0.0 3.0 0.00 0.00 0.00 72 1024.4
20190320042550 57 169 0.0 2.0 0.00 0.00 0.00 72 1024.4
20190320041553 57 171 1.0 3.0 0.00 0.00 0.00 71 1024.3
20190320040536 58 168 1.0 5.0 0.00 0.00 0.00 71 1024.3
20190320035548 58 178 0.0 4.0 0.00 0.00 0.00 70 1024.3
20190320034552 59 173 1.0 2.0 0.00 0.00 0.00 70 1024.1
20190320033556 59 175 0.0 3.0 0.00 0.00 0.00 70 1024.1
20190320032538 59 176 0.0 3.0 0.00 0.00 0.00 69 1024.0
20190320031543 59 184 0.0 3.0 0.00 0.00 0.00 69 1024.0
20190320030552 60 186 0.0 3.0 0.00 0.00 0.00 68 1023.9
20190320025547 60 183 1.0 4.0 0.00 0.00 0.00 67 1023.8
20190320024550 60 170 0.0 4.0 0.00 0.00 0.00 66 1023.8
20190320023543 60 175 0.0 4.0 0.00 0.00 0.00 65 1023.7
20190320022540 61 176 1.0 4.0 0.00 0.00 0.00 65 1023.7
20190320021546 61 178 0.0 3.0 0.00 0.00 0.00 64 1023.6
20190320020537 61 183 1.0 4.0 0.00 0.00 0.00 64 1023.5
20190320015552 61 178 1.0 3.0 0.00 0.00 0.00 63 1023.3
20190320014542 61 178 1.0 3.0 0.00 0.00 0.00 62 1023.2
20190320013555 61 177 0.0 2.0 0.00 0.00 0.00 62 1023.2
20190320012544 61 178 0.0 3.0 0.00 0.00 0.00 62 1023.1
20190320011546 62 175 1.0 3.0 0.00 0.00 0.00 61 1023.1
20190320010545 62 171 1.0 5.0 0.00 0.00 0.00 61 1023.0
20190320005545 62 188 1.0 3.0 0.00 0.00 0.00 62 1023.0
20190320004549 62 167 1.0 4.0 0.00 0.00 0.00 61 1023.1
20190320003548 62 175 1.0 5.0 0.00 0.00 0.00 61 1023.0
20190320002551 62 170 1.0 7.0 0.00 0.00 0.00 60 1022.9
20190320001545 63 178 2.0 6.0 0.00 0.00 0.00 59 1022.9
20190320000548 63 194 3.0 8.0 0.00 0.00 0.00 58 1022.8
20190319235544 63 190 3.0 8.0 0.00 0.00 0.00 56 1022.7
20190319234546 63 191 3.0 8.0 0.00 0.00 0.00 54 1022.7
20190319233557 64 180 2.0 7.0 0.00 0.00 0.00 53 1022.6
20190319232533 64 172 1.0 5.0 0.00 0.00 0.00 52 1022.6
20190319231543 64 163 4.0 7.0 0.00 0.00 0.00 52 1022.7
20190319230545 65 125 3.0 8.0 0.00 0.00 0.00 46 1022.8
20190319225549 65 198 3.0 8.0 0.00 0.00 0.00 47 1022.8
20190319224542 65 192 4.0 11.0 0.00 0.00 0.00 46 1022.8
20190319223541 66 196 3.0 12.0 0.00 0.00 0.00 47 1022.8
20190319222547 66 230 4.0 11.0 0.00 0.00 0.00 47 1022.8
20190319221551 66 187 3.0 14.0 0.00 0.00 0.00 44 1022.8
20190319220543 67 155 4.0 11.0 0.00 0.00 0.00 46 1022.8
20190319215538 67 153 5.0 11.0 0.00 0.00 0.00 44 1022.8
20190319214543 68 214 4.0 10.0 0.00 0.00 0.00 42 1022.9
20190319213546 68 149 4.0 11.0 0.00 0.00 0.00 40 1022.8
20190319212538 69 173 2.0 7.0 0.00 0.00 0.00 38 1022.8
20190319211545 69 160 4.0 8.0 0.00 0.00 0.00 38 1022.9
20190319210542 69 159 2.0 12.0 0.00 0.00 0.00 39 1022.9
20190319205545 69 157 2.0 10.0 0.00 0.00 0.00 37 1022.9
20190319204547 70 360 4.0 8.0 0.00 0.00 0.00 34 1023.1
20190319203555 69 142 6.0 10.0 0.00 0.00 0.00 35 1023.1
20190319202538 69 128 5.0 12.0 0.00 0.00 0.00 37 1023.3
20190319201554 69 155 4.0 10.0 0.00 0.00 0.00 35 1023.4
20190319200546 69 115 4.0 10.0 0.00 0.00 0.00 33 1023.6
20190319195546 70 214 3.0 12.0 0.00 0.00 0.00 36 1023.7
20190319194548 70 135 6.0 17.0 0.00 0.00 0.00 36 1023.6
20190319193551 71 117 5.0 9.0 0.00 0.00 0.00 33 1023.9
20190319192544 71 159 6.0 12.0 0.00 0.00 0.00 30 1024.2
20190319191542 71 360 5.0 13.0 0.00 0.00 0.00 33 1024.4
20190319190551 70 155 3.0 9.0 0.00 0.00 0.00 35 1024.6
20190319185546 69 141 4.0 8.0 0.00 0.00 0.00 37 1024.8
20190319184556 70 165 3.0 10.0 0.00 0.00 0.00 36 1025.1
20190319183556 69 130 4.0 10.0 0.00 0.00 0.00 37 1025.1
20190319182543 69 134 3.0 9.0 0.00 0.00 0.00 38 1025.4
20190319181557 69 160 3.0 10.0 0.00 0.00 0.00 37 1025.5
20190319180546 68 99 3.0 11.0 0.00 0.00 0.00 38 1025.6
20190319175544 70 179 4.0 15.0 0.00 0.00 0.00 36 1025.7
20190319174551 70 105 4.0 12.0 0.00 0.00 0.00 38 1025.8
20190319173542 67 360 6.0 11.0 0.00 0.00 0.00 40 1025.9
20190319172548 68 136 2.0 12.0 0.00 0.00 0.00 38 1026.1
20190319171550 70 179 3.0 10.0 0.00 0.00 0.00 36 1026.2
20190319170541 68 128 6.0 18.0 0.00 0.00 0.00 38 1026.2
20190319165534 67 96 6.0 16.0 0.00 0.00 0.00 39 1026.4
20190319164547 67 116 6.0 13.0 0.00 0.00 0.00 40 1026.5
20190319163541 65 360 4.0 10.0 0.00 0.00 0.00 42 1026.5
20190319162546 65 101 3.0 8.0 0.00 0.00 0.00 42 1026.5